NOAA 16 DEB, 41665

Orbit data source: Space-Track

NOAA 16 DEB, 41665 is space debris in SSO originally from a launch on Thu, 21 Sep 2000 UTC launched from the Air Force Western Test Range (AFWTR). Debris objects in space refer to the collection of defunct objects orbiting the Earth. Examples of debris include non-operational satellites, rocket bodies, and fragments generated from explosions, collisions, or faulty payload assembly.

Loading next visibility...
Identifier
41665, 2000-055PE
Orbit
SSO
Country
Flag of USUS
Related business
Manufacturer
Unknown
Mission
Spacecraft
Bus & Motor
Unknown
Mass
Unknown
Launch date (UTC)
2000-09-21 (25 years ago)
Launch vehicle
Unknown
Launch site
Air Force Western Test Range (AFWTR)
Object type
Payload
Rocket body
Debris
Shape & HBR
Unknown shape, 0.1 m
Radar Cross Section
Small (<0.1 m²)

Expand to show TLE details & history
Last TLE update: 1 day ago

TLE from 1 day ago
0 NOAA 16 DEB
1 41665U 00055PE  26036.20179432  .00001273  00000-0  74840-3 0  9996
2 41665  98.6474  30.0778 0039593 210.3220 149.5660 14.09378653502594
Epoch: 2026-02-05T04:50Z
TLE epoch observation values (Epoch: 2026-02-05T04:50:35.029Z)
Latitude
-0.00001°
Longitude
-177.92557°
Altitude
889.149 km
Speed
7.395 km/s
True Right ascension
02h 00m 18s
True Declination
0° 00' 00"
Sunlit
Object was in daylight at epoch
Visualization orbit readout
Latitude
Unknown
Longitude
Unknown
Altitude
Unknown
Speed
Unknown
Apparent Right ascension
Unknown
Apparent Declination
Unknown
Sunlit
N/A
Visualization observer readout
Local Sidereal Time
18:20:31
Azimuth
Unknown
Elevation
Unknown
Doppler factor
Unknown
Orbital elements
Apogee altitude
887.321 km
Perigee altitude
830.016 km
Semi-major axis
7,236.806 km
Eccentricity
0.00396
Inclination
98.6474°
RAAN
30.0778°
Arg. of periapsis
210.322°
True anomaly
149.79484°
Mean anomaly
149.566°
Eccentric anomaly
149.68052°
Mean motion
3.52552 °/min
Orbital period
102.11 mins
BSTAR
0.0007484
Loading maneuver chart data...
Computing Atmospheric mass density...
Loading historical data...
Loading historical data...
Loading historical data...
Loading historical data...
Loading historical data...
Loading historical data...
Loading historical data...

Documentation

Showing up to 5 results
|